User: anonymous   Login
Location: Unspecified
(0.0000°N, 0.0000°E)
Time: 19:54:10
(UTC+00:00)
Language:

Tiros 1 - Orbit

View from above orbital plane
View from above orbital plane
View from above satellite
View from above satellite

Ground track
Ground track

The orbit data is extracted from the following two-line orbital elements,

1 00029U 60002B   14350.73751717  .00001225  00000-0  21686-3 0  4047
2 00029 048.3801 069.7822 0024969 277.0802 082.7271 14.73511312922151
Epoch (UTC): 16 December 2014 17:42:01
Eccentricity: 0.0024969
inclination: 48.3801°
perigee height: 632 km
apogee height: 667 km
right ascension of ascending node: 69.7822°
argument of perigee: 277.0802°
revolutions per day: 14.73511312
mean anomaly at epoch: 82.7271°
orbit number at epoch: 92215

The dashed part of the orbit path shows where the satellite is in the earth's shadow,  

DLR